GFSNE_prec_precacc12_291.txt.gz
Total_Precipitation_Accumulation
0.03 0.03 0.03 0.03 0.06 0.12 0.28 0.60 0.67 0.62 0.68 0.62 1.03 1.70 1.48 1.39 1.64 1.05 0.43 0.32 0.12 0.02 0.00 0.00 0.00 0.00 0.00 0.00 0.00 0.00 0.00 0.00 0.00 0.00 0.00 0.00 0.01 0.01
0.03 0.02 0.02 0.03 0.03 0.05 0.10 0.26 0.53 0.58 0.55 0.62 0.84 1.03 1.75 1.52 1.34 1.55 1.02 0.37 0.25 0.05 0.01 0.00 0.00 0.00 0.00 0.00 0.00 0.00 0.00 0.00 0.00 0.00 0.00 0.00 0.00 0.01
0.02 0.02 0.02 0.02 0.02 0.04 0.03 0.06 0.20 0.40 0.46 0.41 0.51 0.57 0.87 1.19 1.01 1.05 1.60 0.79 0.36 0.18 0.03 0.01 0.00 0.00 0.00 0.00 0.00 0.00 0.00 0.00 0.00 0.00 0.00 0.00 0.00 0.00
0.02 0.02 0.02 0.02 0.02 0.02 0.02 0.02 0.05 0.14 0.32 0.51 0.38 0.49 0.48 0.87 0.96 0.86 1.09 0.96 0.42 0.23 0.12 0.03 0.00 0.00 0.00 0.00 0.00 0.00 0.00 0.00 0.00 0.00 0.00 0.00 0.00 0.00
0.03 0.02 0.02 0.02 0.02 0.02 0.02 0.02 0.01 0.05 0.11 0.40 0.39 0.34 0.40 0.65 1.02 1.04 1.01 0.67 0.48 0.27 0.19 0.14 0.08 0.03 0.00 0.00 0.00 0.00 0.00 0.00 0.00 0.00 0.00 0.00 0.00 0.00
0.02 0.02 0.02 0.03 0.04 0.03 0.02 0.02 0.01 0.01 0.03 0.16 0.33 0.31 0.33 0.41 0.92 1.25 1.00 0.91 0.47 0.27 0.19 0.10 0.11 0.09 0.05 0.01 0.00 0.00 0.00 0.00 0.00 0.00 0.00 0.00 0.00 0.00
0.02 0.01 0.02 0.03 0.02 0.03 0.03 0.02 0.01 0.01 0.02 0.07 0.20 0.29 0.33 0.31 0.41 0.98 1.48 1.10 0.71 0.35 0.17 0.09 0.05 0.04 0.04 0.03 0.02 0.01 0.00 0.00 0.00 0.00 0.00 0.00 0.00 0.00
0.02 0.02 0.01 0.02 0.01 0.00 0.01 0.03 0.02 0.02 0.02 0.03 0.12 0.18 0.29 0.26 0.30 0.47 0.96 1.31 1.17 0.61 0.26 0.13 0.09 0.02 0.01 0.00 0.01 0.00 0.00 0.00 0.00 0.00 0.00 0.00 0.00 0.00
0.02 0.03 0.01 0.01 0.01 0.00 0.00 0.02 0.03 0.03 0.03 0.05 0.07 0.14 0.19 0.26 0.24 0.35 0.46 0.76 0.96 0.92 0.60 0.26 0.10 0.06 0.01 0.00 0.01 0.01 0.00 0.00 0.01 0.00 0.00 0.00 0.00 0.00
0.01 0.03 0.02 0.02 0.02 0.01 0.00 0.01 0.02 0.02 0.03 0.03 0.07 0.14 0.19 0.22 0.26 0.32 0.34 0.38 0.51 0.70 0.91 0.78 0.31 0.05 0.04 0.01 0.00 0.00 0.01 0.01 0.01 0.01 0.01 0.00 0.00 0.00
0.00 0.01 0.02 0.02 0.01 0.00 0.00 0.01 0.02 0.02 0.02 0.03 0.04 0.16 0.29 0.28 0.21 0.27 0.31 0.30 0.30 0.35 0.51 0.73 0.56 0.31 0.07 0.02 0.01 0.00 0.00 0.01 0.01 0.01 0.00 0.01 0.00 0.01
0.00 0.00 0.01 0.01 0.01 0.00 0.00 0.00 0.01 0.06 0.05 0.03 0.02 0.04 0.07 0.14 0.18 0.12 0.22 0.31 0.27 0.27 0.31 0.41 0.32 0.36 0.31 0.07 0.01 0.01 0.00 0.01 0.01 0.01 0.01 0.01 0.01 0.00
0.00 0.01 0.01 0.00 0.00 0.00 0.00 0.02 0.08 0.06 0.05 0.05 0.02 0.01 0.02 0.04 0.08 0.10 0.13 0.21 0.28 0.24 0.28 0.31 0.21 0.23 0.26 0.19 0.09 0.01 0.01 0.01 0.01 0.02 0.02 0.02 0.02 0.01
0.01 0.01 0.00 0.00 0.00 0.00 0.00 0.00 0.00 0.00 0.01 0.02 0.03 0.03 0.02 0.04 0.08 0.12 0.15 0.19 0.25 0.29 0.32 0.36 0.28 0.25 0.17 0.12 0.13 0.12 0.05 0.02 0.01 0.00 0.00 0.01 0.03 0.04
0.00 0.00 0.00 0.00 0.00 0.00 0.00 0.00 0.00 0.01 0.01 0.01 0.03 0.09 0.13 0.09 0.04 0.08 0.14 0.18 0.24 0.30 0.33 0.38 0.35 0.34 0.33 0.17 0.14 0.22 0.29 0.18 0.06 0.01 0.00 0.00 0.00 0.01
0.00 0.00 0.00 0.00 0.00 0.00 0.00 0.00 0.00 0.01 0.02 0.02 0.03 0.04 0.04 0.04 0.05 0.04 0.08 0.15 0.18 0.18 0.18 0.26 0.32 0.30 0.33 0.48 0.44 0.34 0.38 0.40 0.28 0.13 0.06 0.02 0.01 0.01
0.00 0.00 0.00 0.00 0.00 0.00 0.00 0.00 0.00 0.00 0.01 0.01 0.01 0.01 0.00 0.01 0.02 0.04 0.05 0.07 0.14 0.17 0.15 0.13 0.15 0.22 0.26 0.26 0.34 0.42 0.42 0.45 0.47 0.33 0.19 0.12 0.09 0.05
0.00 0.00 0.00 0.00 0.00 0.00 0.00 0.00 0.00 0.00 0.00 0.00 0.00 0.00 0.01 0.01 0.01 0.00 0.02 0.05 0.07 0.08 0.07 0.07 0.08 0.11 0.17 0.25 0.32 0.23 0.31 0.37 0.35 0.40 0.36 0.25 0.25 0.23
0.00 0.00 0.00 0.00 0.00 0.00 0.00 0.00 0.00 0.00 0.00 0.00 0.00 0.00 0.00 0.00 0.00 0.00 0.01 0.01 0.02 0.03 0.03 0.02 0.04 0.09 0.13 0.14 0.18 0.23 0.19 0.25 0.35 0.42 0.41 0.38 0.32 0.30
0.00 0.00 0.00 0.00 0.00 0.00 0.00 0.00 0.00 0.00 0.00 0.00 0.00 0.00 0.01 0.01 0.01 0.01 0.01 0.01 0.01 0.01 0.01 0.01 0.02 0.05 0.13 0.17 0.14 0.12 0.18 0.11 0.12 0.22 0.39 0.47 0.44 0.47
0.00 0.00 0.00 0.00 0.00 0.00 0.00 0.00 0.00 0.00 0.00 0.00 0.00 0.00 0.01 0.01 0.01 0.01 0.01 0.00 0.00 0.00 0.00 0.01 0.03 0.04 0.03 0.03 0.07 0.06 0.05 0.09 0.09 0.09 0.10 0.17 0.33 0.42
0.00 0.00 0.00 0.00 0.00 0.00 0.00 0.00 0.00 0.00 0.00 0.00 0.00 0.00 0.01 0.01 0.01 0.01 0.01 0.01 0.01 0.01 0.00 0.00 0.00 0.01 0.01 0.02 0.04 0.05 0.03 0.02 0.04 0.06 0.07 0.08 0.12 0.21
0.00 0.00 0.00 0.00 0.00 0.00 0.00 0.00 0.00 0.00 0.00 0.00 0.00 0.00 0.00 0.00 0.00 0.00 0.00 0.00 0.00 0.00 0.00 0.00 0.00 0.00 0.01 0.02 0.02 0.03 0.03 0.01 0.02 0.02 0.02 0.04 0.05 0.07

GFSNE_prec_precacc12_294.txt.gz
Total_Precipitation_Accumulation
0.03 0.03 0.03 0.03 0.06 0.11 0.20 0.39 0.43 0.46 0.78 0.94 1.44 2.40 2.20 1.94 2.75 1.38 0.59 0.37 0.12 0.02 0.00 0.00 0.00 0.00 0.00 0.00 0.00 0.00 0.00 0.00 0.00 0.00 0.00 0.00 0.01 0.01
0.03 0.02 0.02 0.03 0.03 0.05 0.09 0.23 0.38 0.44 0.50 0.83 1.12 1.32 2.15 1.88 2.13 2.50 1.29 0.49 0.28 0.06 0.01 0.00 0.00 0.00 0.00 0.00 0.00 0.00 0.00 0.00 0.00 0.00 0.00 0.00 0.00 0.01
0.02 0.02 0.02 0.01 0.02 0.03 0.03 0.09 0.28 0.31 0.40 0.56 0.57 0.65 1.00 1.30 1.32 1.81 2.14 0.93 0.37 0.21 0.05 0.01 0.00 0.00 0.00 0.00 0.00 0.00 0.00 0.00 0.00 0.00 0.00 0.00 0.00 0.00
0.02 0.02 0.01 0.01 0.01 0.02 0.02 0.03 0.11 0.23 0.31 0.52 0.40 0.52 0.56 1.00 1.09 1.06 1.45 1.36 0.51 0.25 0.18 0.07 0.01 0.00 0.00 0.00 0.00 0.00 0.00 0.00 0.00 0.00 0.00 0.00 0.00 0.00
0.02 0.03 0.02 0.02 0.02 0.02 0.02 0.02 0.02 0.15 0.20 0.41 0.45 0.43 0.49 0.73 1.10 1.06 1.06 0.92 0.64 0.33 0.22 0.17 0.09 0.02 0.00 0.00 0.00 0.00 0.00 0.00 0.00 0.00 0.00 0.00 0.00 0.00
0.02 0.02 0.02 0.04 0.05 0.03 0.02 0.02 0.02 0.05 0.15 0.18 0.39 0.40 0.44 0.46 1.01 1.29 0.97 1.22 0.70 0.39 0.30 0.16 0.14 0.13 0.05 0.01 0.00 0.00 0.00 0.00 0.00 0.00 0.00 0.00 0.00 0.00
0.01 0.01 0.02 0.03 0.02 0.03 0.04 0.02 0.01 0.02 0.06 0.11 0.23 0.34 0.36 0.36 0.45 1.01 1.40 1.23 1.11 0.49 0.35 0.26 0.09 0.08 0.10 0.08 0.03 0.01 0.00 0.00 0.00 0.00 0.00 0.00 0.00 0.00
0.02 0.01 0.01 0.01 0.01 0.01 0.02 0.02 0.02 0.02 0.03 0.07 0.15 0.19 0.29 0.31 0.33 0.45 0.93 1.39 1.45 0.78 0.38 0.37 0.19 0.03 0.02 0.02 0.02 0.00 0.00 0.01 0.00 0.00 0.00 0.00 0.00 0.00
0.02 0.02 0.01 0.01 0.01 0.00 0.00 0.01 0.02 0.03 0.03 0.03 0.08 0.15 0.17 0.30 0.26 0.35 0.49 0.99 1.37 0.92 0.63 0.44 0.39 0.15 0.03 0.01 0.02 0.00 0.00 0.00 0.01 0.01 0.00 0.00 0.00 0.00
0.01 0.01 0.02 0.01 0.01 0.01 0.00 0.01 0.02 0.03 0.03 0.02 0.04 0.12 0.18 0.23 0.26 0.31 0.43 0.60 0.94 0.86 0.79 0.80 0.46 0.25 0.08 0.03 0.01 0.00 0.00 0.00 0.00 0.01 0.01 0.01 0.01 0.00
0.00 0.01 0.01 0.01 0.01 0.00 0.00 0.00 0.01 0.02 0.03 0.03 0.03 0.10 0.21 0.26 0.21 0.27 0.34 0.47 0.53 0.75 0.69 0.75 0.67 0.43 0.14 0.06 0.02 0.01 0.01 0.02 0.01 0.01 0.01 0.01 0.01 0.01
0.00 0.00 0.00 0.00 0.00 0.00 0.00 0.00 0.01 0.05 0.04 0.03 0.02 0.03 0.06 0.15 0.18 0.17 0.34 0.42 0.47 0.47 0.51 0.50 0.56 0.59 0.52 0.26 0.07 0.02 0.02 0.02 0.03 0.02 0.01 0.01 0.01 0.02
0.00 0.00 0.00 0.00 0.00 0.00 0.00 0.01 0.06 0.04 0.03 0.04 0.02 0.01 0.03 0.06 0.13 0.15 0.24 0.39 0.47 0.41 0.43 0.37 0.32 0.42 0.48 0.40 0.29 0.06 0.04 0.04 0.02 0.02 0.02 0.02 0.04 0.04
0.00 0.00 0.00 0.00 0.00 0.00 0.00 0.00 0.00 0.00 0.01 0.01 0.01 0.02 0.02 0.04 0.12 0.16 0.17 0.27 0.32 0.37 0.35 0.39 0.37 0.32 0.26 0.24 0.34 0.33 0.21 0.14 0.04 0.00 0.00 0.02 0.04 0.05
0.00 0.00 0.00 0.00 0.00 0.00 0.00 0.00 0.00 0.00 0.01 0.01 0.02 0.05 0.09 0.06 0.04 0.08 0.12 0.15 0.20 0.23 0.20 0.25 0.33 0.34 0.28 0.24 0.27 0.36 0.47 0.30 0.14 0.03 0.00 0.00 0.00 0.01
0.00 0.00 0.00 0.00 0.00 0.00 0.00 0.00 0.00 0.00 0.01 0.02 0.02 0.03 0.03 0.02 0.02 0.02 0.05 0.08 0.11 0.15 0.16 0.21 0.23 0.30 0.31 0.33 0.34 0.37 0.47 0.49 0.35 0.16 0.07 0.02 0.02 0.02
0.00 0.00 0.00 0.00 0.00 0.00 0.00 0.00 0.00 0.00 0.00 0.01 0.01 0.01 0.00 0.00 0.01 0.01 0.02 0.03 0.06 0.08 0.12 0.16 0.18 0.20 0.24 0.25 0.28 0.31 0.35 0.46 0.49 0.36 0.22 0.15 0.11 0.06
0.00 0.00 0.00 0.00 0.00 0.00 0.00 0.00 0.00 0.00 0.00 0.00 0.00 0.00 0.01 0.01 0.00 0.00 0.01 0.03 0.05 0.04 0.04 0.06 0.08 0.12 0.18 0.25 0.30 0.20 0.23 0.30 0.30 0.35 0.35 0.29 0.32 0.29
0.00 0.00 0.00 0.00 0.00 0.00 0.00 0.00 0.00 0.00 0.00 0.00 0.00 0.00 0.00 0.00 0.00 0.00 0.00 0.01 0.01 0.02 0.02 0.02 0.04 0.09 0.12 0.14 0.19 0.24 0.17 0.19 0.28 0.32 0.32 0.33 0.35 0.41
0.00 0.00 0.00 0.00 0.00 0.00 0.00 0.00 0.00 0.00 0.00 0.00 0.00 0.00 0.00 0.00 0.00 0.00 0.01 0.01 0.01 0.00 0.00 0.00 0.01 0.04 0.12 0.18 0.14 0.11 0.16 0.12 0.11 0.18 0.32 0.38 0.37 0.45
0.00 0.00 0.00 0.00 0.00 0.00 0.00 0.00 0.00 0.00 0.00 0.00 0.00 0.00 0.01 0.00 0.00 0.00 0.00 0.00 0.00 0.00 0.00 0.01 0.01 0.01 0.02 0.02 0.06 0.05 0.03 0.06 0.08 0.08 0.08 0.15 0.29 0.38
0.00 0.00 0.00 0.00 0.00 0.00 0.00 0.00 0.00 0.00 0.00 0.00 0.00 0.00 0.00 0.00 0.00 0.00 0.01 0.01 0.00 0.00 0.00 0.00 0.00 0.00 0.00 0.01 0.02 0.03 0.02 0.00 0.02 0.04 0.06 0.07 0.11 0.19
0.00 0.00 0.00 0.00 0.00 0.00 0.00 0.00 0.00 0.00 0.00 0.00 0.00 0.00 0.00 0.00 0.00 0.00 0.00 0.00 0.00 0.00 0.00 0.00 0.00 0.00 0.00 0.00 0.01 0.01 0.01 0.00 0.00 0.01 0.01 0.02 0.03 0.05

GFSNE_prec_precacc12_297.txt.gz
Total_Precipitation_Accumulation
0.03 0.03 0.02 0.03 0.04 0.07 0.14 0.33 0.28 0.25 0.65 0.92 1.40 2.26 2.14 2.27 2.76 1.20 0.52 0.39 0.11 0.00 0.00 0.00 0.00 0.00 0.00 0.00 0.00 0.00 0.00 0.00 0.00 0.00 0.00 0.00 0.01 0.01
0.02 0.02 0.02 0.03 0.02 0.03 0.07 0.21 0.33 0.28 0.38 0.74 1.04 1.18 2.00 2.33 2.19 2.29 0.95 0.45 0.25 0.04 0.00 0.00 0.00 0.00 0.00 0.00 0.00 0.00 0.00 0.00 0.00 0.00 0.00 0.00 0.00 0.01
0.02 0.02 0.02 0.02 0.02 0.02 0.03 0.12 0.27 0.26 0.31 0.54 0.56 0.62 0.92 1.62 1.62 1.95 1.74 0.68 0.34 0.16 0.03 0.00 0.00 0.00 0.00 0.00 0.00 0.00 0.00 0.00 0.00 0.00 0.00 0.00 0.00 0.00
0.02 0.02 0.02 0.01 0.01 0.01 0.02 0.06 0.20 0.24 0.23 0.42 0.40 0.53 0.61 1.14 1.61 1.37 1.64 1.09 0.40 0.18 0.14 0.06 0.00 0.00 0.00 0.00 0.00 0.00 0.00 0.00 0.00 0.00 0.00 0.00 0.00 0.00
0.02 0.03 0.03 0.02 0.02 0.02 0.01 0.04 0.13 0.20 0.20 0.30 0.34 0.41 0.50 0.71 1.39 1.22 1.32 1.14 0.54 0.30 0.18 0.16 0.11 0.01 0.00 0.00 0.00 0.00 0.00 0.00 0.00 0.00 0.00 0.00 0.00 0.00
0.01 0.02 0.03 0.05 0.05 0.04 0.02 0.02 0.06 0.12 0.22 0.19 0.28 0.29 0.43 0.45 0.97 1.30 1.11 1.43 0.80 0.36 0.32 0.17 0.18 0.18 0.05 0.01 0.00 0.00 0.00 0.00 0.00 0.00 0.00 0.00 0.00 0.00
0.01 0.01 0.02 0.03 0.02 0.04 0.04 0.03 0.03 0.07 0.15 0.14 0.23 0.23 0.28 0.31 0.43 0.93 1.34 1.21 1.13 0.48 0.34 0.27 0.12 0.13 0.15 0.10 0.03 0.01 0.00 0.00 0.00 0.00 0.00 0.00 0.00 0.00
0.01 0.01 0.00 0.01 0.01 0.01 0.03 0.04 0.03 0.06 0.08 0.11 0.15 0.19 0.24 0.32 0.34 0.45 0.95 1.41 1.53 0.93 0.42 0.33 0.17 0.04 0.03 0.03 0.03 0.00 0.00 0.01 0.01 0.00 0.00 0.00 0.00 0.00
0.01 0.01 0.01 0.01 0.01 0.01 0.01 0.01 0.03 0.04 0.06 0.08 0.10 0.17 0.20 0.32 0.31 0.41 0.59 1.14 1.52 1.09 0.78 0.44 0.37 0.15 0.03 0.02 0.03 0.01 0.00 0.01 0.02 0.01 0.01 0.01 0.01 0.00
0.01 0.00 0.01 0.01 0.02 0.01 0.00 0.01 0.01 0.03 0.04 0.05 0.08 0.14 0.19 0.21 0.26 0.35 0.57 0.80 1.12 0.93 0.80 0.64 0.39 0.30 0.10 0.03 0.02 0.01 0.00 0.00 0.01 0.02 0.02 0.01 0.01 0.01
0.00 0.00 0.01 0.00 0.00 0.00 0.00 0.00 0.00 0.02 0.03 0.04 0.05 0.09 0.20 0.22 0.18 0.27 0.42 0.57 0.62 0.86 0.80 0.74 0.54 0.41 0.22 0.13 0.07 0.06 0.04 0.03 0.02 0.01 0.02 0.03 0.02 0.02
0.00 0.00 0.00 0.00 0.00 0.00 0.00 0.00 0.02 0.06 0.03 0.02 0.02 0.02 0.05 0.14 0.16 0.15 0.33 0.46 0.53 0.57 0.80 0.65 0.67 0.62 0.54 0.38 0.19 0.11 0.07 0.06 0.08 0.06 0.04 0.04 0.07 0.08
0.00 0.00 0.00 0.00 0.00 0.00 0.00 0.00 0.04 0.02 0.01 0.01 0.01 0.01 0.01 0.05 0.15 0.15 0.26 0.45 0.60 0.52 0.59 0.61 0.62 0.62 0.57 0.59 0.60 0.40 0.30 0.17 0.09 0.09 0.09 0.09 0.09 0.07
0.00 0.00 0.00 0.00 0.00 0.00 0.00 0.00 0.00 0.00 0.00 0.00 0.00 0.01 0.02 0.05 0.12 0.15 0.16 0.33 0.47 0.55 0.47 0.47 0.53 0.58 0.53 0.49 0.68 0.77 0.58 0.43 0.25 0.10 0.05 0.09 0.10 0.10
0.00 0.00 0.00 0.00 0.00 0.00 0.00 0.00 0.00 0.00 0.00 0.00 0.01 0.03 0.07 0.06 0.03 0.08 0.11 0.16 0.24 0.36 0.37 0.36 0.45 0.46 0.45 0.44 0.48 0.57 0.72 0.57 0.41 0.28 0.13 0.06 0.03 0.03
0.00 0.00 0.00 0.00 0.00 0.00 0.00 0.00 0.00 0.00 0.00 0.01 0.01 0.01 0.01 0.01 0.01 0.01 0.04 0.08 0.11 0.21 0.27 0.30 0.32 0.39 0.45 0.45 0.43 0.43 0.50 0.60 0.55 0.41 0.35 0.28 0.14 0.07
0.00 0.00 0.00 0.00 0.00 0.00 0.00 0.00 0.00 0.00 0.00 0.00 0.00 0.00 0.00 0.00 0.01 0.01 0.00 0.01 0.04 0.08 0.14 0.23 0.30 0.28 0.32 0.36 0.37 0.35 0.37 0.44 0.47 0.46 0.41 0.38 0.33 0.25
0.00 0.00 0.00 0.00 0.00 0.00 0.00 0.00 0.00 0.00 0.00 0.00 0.00 0.00 0.00 0.00 0.00 0.00 0.00 0.01 0.01 0.01 0.02 0.04 0.10 0.18 0.23 0.29 0.36 0.28 0.26 0.29 0.29 0.34 0.41 0.44 0.49 0.44
0.00 0.00 0.00 0.00 0.00 0.00 0.00 0.00 0.00 0.00 0.00 0.00 0.00 0.00 0.00 0.00 0.00 0.00 0.00 0.00 0.00 0.01 0.01 0.01 0.02 0.06 0.11 0.17 0.18 0.18 0.16 0.18 0.21 0.24 0.32 0.38 0.42 0.48
0.00 0.00 0.00 0.00 0.00 0.00 0.00 0.00 0.00 0.00 0.00 0.00 0.00 0.00 0.00 0.00 0.00 0.00 0.00 0.00 0.00 0.00 0.00 0.00 0.01 0.02 0.08 0.13 0.11 0.07 0.10 0.09 0.09 0.13 0.18 0.24 0.33 0.48
0.00 0.00 0.00 0.00 0.00 0.00 0.00 0.00 0.00 0.00 0.00 0.00 0.00 0.00 0.00 0.00 0.00 0.00 0.00 0.00 0.00 0.00 0.00 0.00 0.00 0.00 0.01 0.01 0.04 0.03 0.02 0.03 0.06 0.08 0.08 0.11 0.19 0.28
0.00 0.00 0.00 0.00 0.00 0.00 0.00 0.00 0.00 0.00 0.00 0.00 0.00 0.00 0.00 0.00 0.00 0.00 0.00 0.00 0.00 0.00 0.00 0.00 0.00 0.00 0.00 0.00 0.02 0.02 0.01 0.00 0.01 0.03 0.05 0.08 0.11 0.17
0.00 0.00 0.00 0.00 0.00 0.00 0.00 0.00 0.00 0.00 0.00 0.00 0.00 0.00 0.00 0.00 0.00 0.00 0.00 0.00 0.00 0.00 0.00 0.00 0.00 0.00 0.00 0.00 0.00 0.01 0.00 0.00 0.00 0.01 0.01 0.01 0.02 0.05

GFSNE_prec_precacc12_300.txt.gz
Total_Precipitation_Accumulation
0.03 0.04 0.06 0.08 0.13 0.15 0.19 0.29 0.18 0.16 0.56 0.76 0.97 1.60 1.83 2.24 2.91 1.24 0.49 0.42 0.17 0.03 0.00 0.00 0.00 0.00 0.00 0.00 0.00 0.00 0.00 0.00 0.00 0.00 0.00 0.00 0.01 0.01
0.03 0.02 0.03 0.07 0.10 0.10 0.10 0.21 0.28 0.18 0.26 0.61 0.69 0.80 1.21 1.65 2.00 2.31 0.92 0.44 0.31 0.09 0.00 0.00 0.00 0.00 0.00 0.00 0.00 0.00 0.00 0.00 0.00 0.00 0.00 0.00 0.00 0.01
0.02 0.02 0.03 0.06 0.09 0.08 0.05 0.13 0.25 0.21 0.19 0.39 0.43 0.47 0.65 1.10 1.15 1.80 1.69 0.66 0.36 0.20 0.03 0.00 0.00 0.00 0.00 0.00 0.00 0.00 0.00 0.00 0.00 0.00 0.00 0.00 0.00 0.00
0.02 0.02 0.03 0.05 0.06 0.07 0.05 0.10 0.21 0.24 0.21 0.28 0.30 0.42 0.57 0.88 1.23 1.13 1.51 1.08 0.41 0.22 0.15 0.06 0.00 0.00 0.00 0.00 0.00 0.00 0.00 0.00 0.00 0.00 0.00 0.00 0.00 0.00
0.03 0.04 0.05 0.05 0.07 0.07 0.08 0.10 0.16 0.22 0.22 0.25 0.28 0.36 0.55 0.59 1.11 1.06 1.14 1.04 0.50 0.30 0.19 0.19 0.11 0.01 0.00 0.00 0.00 0.00 0.00 0.00 0.00 0.00 0.00 0.00 0.00 0.00
0.02 0.03 0.07 0.09 0.10 0.09 0.09 0.12 0.11 0.14 0.24 0.19 0.21 0.28 0.47 0.49 0.82 1.06 0.98 1.20 0.69 0.31 0.31 0.22 0.22 0.18 0.04 0.00 0.00 0.00 0.00 0.00 0.00 0.00 0.00 0.00 0.00 0.00
0.01 0.02 0.06 0.06 0.05 0.08 0.08 0.10 0.11 0.11 0.18 0.16 0.16 0.20 0.32 0.40 0.60 0.84 0.99 1.11 1.03 0.36 0.30 0.26 0.17 0.17 0.17 0.10 0.02 0.00 0.00 0.00 0.00 0.00 0.00 0.00 0.00 0.00
0.01 0.01 0.02 0.04 0.03 0.03 0.07 0.11 0.14 0.12 0.12 0.15 0.16 0.17 0.22 0.32 0.40 0.61 0.69 0.98 1.26 0.73 0.32 0.30 0.15 0.06 0.03 0.03 0.03 0.00 0.00 0.01 0.01 0.00 0.00 0.00 0.00 0.00
0.01 0.01 0.01 0.02 0.02 0.02 0.02 0.04 0.10 0.15 0.17 0.14 0.13 0.19 0.22 0.34 0.33 0.48 0.65 1.01 1.22 0.78 0.62 0.34 0.33 0.13 0.03 0.03 0.02 0.01 0.00 0.01 0.02 0.01 0.01 0.01 0.01 0.00
0.00 0.00 0.01 0.02 0.02 0.01 0.00 0.02 0.07 0.11 0.15 0.13 0.13 0.18 0.27 0.32 0.35 0.42 0.62 0.78 1.03 0.74 0.52 0.44 0.28 0.29 0.09 0.05 0.04 0.03 0.01 0.01 0.01 0.02 0.02 0.02 0.01 0.01
0.00 0.00 0.00 0.00 0.00 0.00 0.00 0.02 0.04 0.10 0.12 0.11 0.13 0.16 0.23 0.30 0.29 0.32 0.45 0.55 0.57 0.79 0.77 0.66 0.46 0.36 0.23 0.14 0.12 0.11 0.10 0.06 0.03 0.03 0.04 0.04 0.03 0.02
0.00 0.00 0.00 0.00 0.00 0.00 0.00 0.00 0.04 0.12 0.08 0.06 0.06 0.06 0.07 0.18 0.24 0.21 0.34 0.44 0.50 0.56 0.83 0.68 0.71 0.65 0.58 0.43 0.23 0.17 0.16 0.20 0.19 0.16 0.13 0.13 0.17 0.14
0.00 0.00 0.00 0.00 0.00 0.00 0.00 0.01 0.07 0.03 0.01 0.03 0.04 0.03 0.02 0.07 0.19 0.18 0.26 0.43 0.57 0.56 0.76 0.78 0.78 0.78 0.68 0.63 0.60 0.44 0.33 0.21 0.12 0.13 0.14 0.15 0.17 0.17
0.00 0.00 0.00 0.00 0.00 0.00 0.00 0.00 0.00 0.00 0.00 0.00 0.01 0.01 0.03 0.08 0.16 0.16 0.16 0.35 0.50 0.59 0.56 0.57 0.70 0.81 0.78 0.65 0.71 0.77 0.62 0.47 0.27 0.11 0.06 0.13 0.14 0.16
0.00 0.00 0.00 0.00 0.00 0.00 0.00 0.00 0.00 0.00 0.00 0.00 0.00 0.02 0.05 0.06 0.04 0.06 0.06 0.13 0.25 0.40 0.43 0.47 0.58 0.66 0.73 0.72 0.70 0.69 0.71 0.57 0.47 0.34 0.18 0.09 0.06 0.05
0.00 0.00 0.00 0.00 0.00 0.00 0.00 0.00 0.00 0.00 0.00 0.01 0.01 0.00 0.00 0.00 0.00 0.01 0.02 0.03 0.08 0.24 0.36 0.44 0.54 0.63 0.64 0.66 0.66 0.62 0.63 0.67 0.60 0.55 0.54 0.42 0.27 0.17
0.00 0.00 0.00 0.00 0.00 0.00 0.00 0.00 0.00 0.00 0.00 0.00 0.00 0.00 0.00 0.00 0.00 0.00 0.00 0.00 0.02 0.08 0.19 0.33 0.46 0.45 0.47 0.48 0.50 0.52 0.51 0.52 0.54 0.59 0.61 0.61 0.60 0.51
0.00 0.00 0.00 0.00 0.00 0.00 0.00 0.00 0.00 0.00 0.00 0.00 0.00 0.00 0.00 0.00 0.00 0.00 0.00 0.00 0.00 0.00 0.02 0.05 0.13 0.25 0.30 0.36 0.41 0.43 0.43 0.47 0.47 0.44 0.49 0.60 0.70 0.66
0.00 0.00 0.00 0.00 0.00 0.00 0.00 0.00 0.00 0.00 0.00 0.00 0.00 0.00 0.00 0.00 0.00 0.00 0.00 0.00 0.00 0.00 0.00 0.00 0.00 0.03 0.10 0.19 0.16 0.13 0.20 0.27 0.32 0.38 0.45 0.48 0.53 0.59
0.00 0.00 0.00 0.00 0.00 0.00 0.00 0.00 0.00 0.00 0.00 0.00 0.00 0.00 0.00 0.00 0.00 0.00 0.00 0.00 0.00 0.00 0.00 0.00 0.00 0.01 0.03 0.07 0.07 0.03 0.03 0.03 0.07 0.11 0.16 0.22 0.33 0.44
0.00 0.00 0.00 0.00 0.00 0.00 0.00 0.00 0.00 0.00 0.00 0.00 0.00 0.00 0.00 0.00 0.00 0.00 0.00 0.00 0.00 0.00 0.00 0.00 0.00 0.00 0.00 0.00 0.01 0.01 0.01 0.02 0.02 0.02 0.02 0.04 0.06 0.11
0.00 0.00 0.00 0.00 0.00 0.00 0.00 0.00 0.00 0.00 0.00 0.00 0.00 0.00 0.00 0.00 0.00 0.00 0.00 0.00 0.00 0.00 0.00 0.00 0.00 0.00 0.00 0.00 0.01 0.01 0.01 0.00 0.01 0.01 0.02 0.04 0.06 0.08
0.00 0.00 0.00 0.00 0.00 0.00 0.00 0.00 0.00 0.00 0.00 0.00 0.00 0.00 0.00 0.00 0.00 0.00 0.00 0.00 0.00 0.00 0.00 0.00 0.00 0.00 0.00 0.00 0.00 0.00 0.00 0.00 0.00 0.00 0.01 0.00 0.01 0.02

GFSNE_prec_precacc12_303.txt.gz
Total_Precipitation_Accumulation
0.05 0.09 0.18 0.21 0.29 0.32 0.27 0.24 0.13 0.13 0.36 0.59 0.79 1.24 1.37 1.75 1.78 0.85 0.58 0.43 0.14 0.04 0.00 0.00 0.00 0.00 0.00 0.00 0.00 0.00 0.00 0.00 0.00 0.00 0.01 0.01 0.02 0.02
0.05 0.08 0.14 0.22 0.29 0.28 0.21 0.19 0.17 0.13 0.22 0.51 0.57 0.72 0.97 1.45 1.46 1.52 0.65 0.36 0.26 0.09 0.01 0.00 0.00 0.00 0.00 0.00 0.00 0.00 0.00 0.00 0.00 0.00 0.00 0.00 0.01 0.01
0.03 0.09 0.14 0.19 0.22 0.22 0.13 0.16 0.22 0.14 0.18 0.38 0.41 0.47 0.63 0.99 1.04 1.56 1.06 0.40 0.30 0.19 0.04 0.00 0.00 0.00 0.00 0.00 0.00 0.00 0.00 0.00 0.00 0.00 0.00 0.00 0.00 0.01
0.05 0.09 0.12 0.15 0.16 0.17 0.13 0.13 0.21 0.20 0.17 0.24 0.29 0.39 0.55 0.81 1.08 0.97 1.09 0.72 0.25 0.22 0.15 0.05 0.00 0.00 0.00 0.00 0.00 0.00 0.00 0.00 0.00 0.00 0.00 0.00 0.00 0.00
0.07 0.10 0.13 0.15 0.18 0.18 0.14 0.14 0.19 0.22 0.19 0.16 0.22 0.32 0.58 0.60 1.00 0.73 0.80 0.80 0.37 0.23 0.21 0.18 0.10 0.01 0.00 0.00 0.00 0.00 0.00 0.00 0.00 0.00 0.00 0.00 0.00 0.00
0.04 0.07 0.14 0.22 0.26 0.22 0.18 0.16 0.14 0.16 0.24 0.15 0.16 0.23 0.49 0.58 0.84 0.76 0.61 0.94 0.57 0.27 0.27 0.25 0.22 0.17 0.04 0.00 0.00 0.00 0.00 0.00 0.00 0.00 0.00 0.00 0.00 0.00
0.02 0.04 0.13 0.18 0.20 0.26 0.21 0.16 0.13 0.12 0.19 0.15 0.10 0.21 0.40 0.63 0.68 0.68 0.49 0.71 0.79 0.34 0.28 0.30 0.21 0.18 0.16 0.10 0.02 0.00 0.00 0.00 0.00 0.00 0.00 0.00 0.00 0.00
0.03 0.03 0.05 0.13 0.13 0.15 0.22 0.27 0.22 0.14 0.14 0.14 0.13 0.21 0.36 0.71 0.63 0.54 0.37 0.55 0.96 0.62 0.32 0.33 0.20 0.09 0.03 0.03 0.03 0.00 0.00 0.01 0.01 0.00 0.00 0.00 0.00 0.00
0.01 0.02 0.04 0.09 0.11 0.11 0.14 0.10 0.13 0.19 0.20 0.15 0.15 0.21 0.33 0.69 0.56 0.43 0.40 0.64 0.88 0.68 0.52 0.32 0.36 0.15 0.04 0.03 0.03 0.01 0.00 0.01 0.02 0.01 0.01 0.01 0.01 0.00
0.00 0.01 0.03 0.06 0.11 0.08 0.05 0.08 0.13 0.17 0.19 0.17 0.19 0.25 0.39 0.59 0.51 0.44 0.45 0.62 0.80 0.54 0.35 0.29 0.28 0.31 0.10 0.07 0.08 0.03 0.02 0.01 0.01 0.02 0.02 0.02 0.01 0.01
0.00 0.00 0.01 0.04 0.05 0.05 0.03 0.10 0.13 0.19 0.19 0.20 0.23 0.28 0.38 0.49 0.49 0.43 0.39 0.46 0.46 0.66 0.63 0.40 0.30 0.35 0.24 0.17 0.21 0.24 0.21 0.14 0.09 0.06 0.05 0.05 0.04 0.03
0.00 0.00 0.00 0.00 0.01 0.02 0.04 0.06 0.12 0.24 0.15 0.13 0.13 0.14 0.18 0.26 0.36 0.35 0.38 0.40 0.43 0.43 0.75 0.60 0.59 0.50 0.50 0.45 0.25 0.22 0.22 0.29 0.28 0.25 0.22 0.20 0.23 0.17
0.00 0.00 0.00 0.00 0.00 0.00 0.01 0.05 0.13 0.09 0.08 0.12 0.11 0.09 0.09 0.15 0.28 0.27 0.34 0.49 0.59 0.52 0.73 0.75 0.74 0.74 0.59 0.58 0.59 0.45 0.35 0.24 0.14 0.16 0.17 0.19 0.22 0.24
0.00 0.00 0.00 0.00 0.00 0.00 0.00 0.01 0.00 0.00 0.01 0.05 0.08 0.08 0.09 0.13 0.22 0.23 0.22 0.44 0.58 0.62 0.55 0.56 0.74 0.86 0.78 0.63 0.66 0.73 0.61 0.47 0.28 0.13 0.08 0.16 0.17 0.20
0.00 0.00 0.00 0.00 0.00 0.00 0.00 0.00 0.00 0.00 0.00 0.02 0.05 0.09 0.13 0.14 0.07 0.09 0.10 0.16 0.29 0.44 0.47 0.47 0.64 0.80 0.90 0.82 0.74 0.66 0.62 0.51 0.46 0.37 0.21 0.11 0.09 0.08
0.00 0.00 0.00 0.00 0.00 0.00 0.00 0.00 0.00 0.00 0.00 0.00 0.01 0.03 0.03 0.01 0.01 0.01 0.02 0.03 0.11 0.30 0.43 0.50 0.65 0.81 0.90 0.91 0.85 0.75 0.71 0.66 0.56 0.56 0.59 0.49 0.31 0.21
0.00 0.00 0.00 0.00 0.00 0.00 0.00 0.00 0.00 0.00 0.00 0.00 0.00 0.00 0.00 0.00 0.00 0.00 0.00 0.00 0.03 0.10 0.21 0.39 0.54 0.60 0.69 0.68 0.70 0.74 0.71 0.70 0.68 0.63 0.63 0.70 0.74 0.65
0.00 0.00 0.00 0.00 0.00 0.00 0.00 0.00 0.00 0.00 0.00 0.00 0.00 0.00 0.00 0.00 0.00 0.00 0.00 0.00 0.00 0.01 0.03 0.07 0.16 0.27 0.38 0.50 0.61 0.69 0.67 0.71 0.72 0.62 0.60 0.65 0.73 0.71
0.00 0.00 0.00 0.00 0.00 0.00 0.00 0.00 0.00 0.00 0.00 0.00 0.00 0.00 0.00 0.00 0.00 0.00 0.00 0.00 0.00 0.00 0.00 0.00 0.00 0.02 0.08 0.21 0.22 0.20 0.33 0.41 0.47 0.56 0.63 0.66 0.67 0.70
0.00 0.00 0.00 0.00 0.00 0.00 0.00 0.00 0.00 0.00 0.00 0.00 0.00 0.00 0.00 0.00 0.00 0.00 0.00 0.00 0.00 0.00 0.00 0.00 0.00 0.00 0.01 0.05 0.06 0.06 0.05 0.08 0.11 0.14 0.19 0.26 0.38 0.44
0.00 0.00 0.00 0.00 0.00 0.00 0.00 0.00 0.00 0.00 0.00 0.00 0.00 0.00 0.00 0.00 0.00 0.00 0.00 0.00 0.00 0.00 0.00 0.00 0.00 0.00 0.00 0.00 0.00 0.01 0.02 0.04 0.04 0.05 0.06 0.07 0.06 0.06
0.00 0.00 0.00 0.00 0.00 0.00 0.00 0.00 0.00 0.00 0.00 0.00 0.00 0.00 0.00 0.00 0.00 0.00 0.00 0.00 0.00 0.00 0.00 0.00 0.00 0.00 0.00 0.00 0.00 0.00 0.00 0.01 0.02 0.03 0.03 0.05 0.05 0.04
0.00 0.00 0.00 0.00 0.00 0.00 0.00 0.00 0.00 0.00 0.00 0.00 0.00 0.00 0.00 0.00 0.00 0.00 0.00 0.00 0.00 0.00 0.00 0.00 0.00 0.00 0.00 0.00 0.00 0.00 0.00 0.00 0.00 0.01 0.01 0.02 0.02 0.02